M I D A S
Marine Information and Data Acquisition System
Tripno 1945 of the Zeeleeuw from 2010-08-25 06:32:46 to 2010-08-25 14:01:26
Back to CruiseResearch ActivitiesStationsMapUnderway DataData graphs

EquipmentUnitsComment
TimeDGPSUTC
LatitudeDGPSDM.mWGS84
LongitudeDGPSDM.mWGS84
TemperatureSBE03/SBE38deg celciusITS90
ConductivitySBE21S/mITS90
SalinitySBE21 Practical Salinity Units
ChlorophylAChelsea fluorimeterg/lCalibrated in Aceton
Missing or incorrect values are displayed as -999
Sea surface data collected by the RV Zeeleeuw from 2010-08-25 06:31:20 to 2010-08-25 14:11:02
Time Latitude Longitude Temperature Conductivity Salinity ChlorophylA
2010-08-25 06:33:30 51°13.694 2°55.814 -999 -999 -999 -999
2010-08-25 06:35:30 51°13.745 2°55.745 -999 -999 -999 -999
2010-08-25 06:37:30 51°13.89 2°55.586 -999 -999 -999 -999
2010-08-25 06:39:30 51°14.094 2°55.434 -999 -999 -999 -999
2010-08-25 06:41:30 51°14.307 2°55.248 -999 -999 -999 -999
2010-08-25 06:43:30 51°14.579 2°54.951 -999 -999 -999 -999
2010-08-25 06:45:30 51°14.92 2°54.51 -999 -999 -999 -999
2010-08-25 06:47:30 51°15.252 2°54.095 -999 -999 -999 -999
2010-08-25 06:49:30 51°15.604 2°53.695 -999 -999 -999 -999
2010-08-25 06:51:30 51°15.973 2°53.339 -999 -999 -999 -999
2010-08-25 06:53:30 51°16.344 2°53.022 -999 -999 -999 -999
2010-08-25 06:55:30 51°16.717 2°52.709 -999 -999 -999 -999
2010-08-25 06:57:30 51°17.084 2°52.4 -999 -999 -999 -999
2010-08-25 06:59:30 51°17.447 2°52.067 -999 -999 -999 -999
2010-08-25 07:01:30 51°17.799 2°51.715 -999 -999 -999 -999
2010-08-25 07:03:30 51°18.151 2°51.349 -999 -999 -999 -999
2010-08-25 07:05:30 51°18.499 2°50.971 -999 -999 -999 -999
2010-08-25 07:07:30 51°18.848 2°50.592 -999 -999 -999 -999
2010-08-25 07:09:30 51°19.192 2°50.219 -999 -999 -999 -999
2010-08-25 07:11:30 51°19.547 2°49.837 -999 -999 -999 -999
2010-08-25 07:13:30 51°19.899 2°49.453 -999 -999 -999 -999
2010-08-25 07:15:30 51°20.225 2°49.027 -999 -999 -999 -999
2010-08-25 07:17:30 51°20.543 2°48.54 -999 -999 -999 -999
2010-08-25 07:19:30 51°20.867 2°48.077 -999 -999 -999 -999
2010-08-25 07:21:30 51°21.233 2°47.735 -999 -999 -999 -999
2010-08-25 07:23:30 51°21.609 2°47.419 -999 -999 -999 -999
2010-08-25 07:25:30 51°21.985 2°47.114 -999 -999 -999 -999
2010-08-25 07:27:30 51°22.349 2°46.785 -999 -999 -999 -999
2010-08-25 07:29:30 51°22.702 2°46.432 -999 -999 -999 -999
2010-08-25 07:31:30 51°23.051 2°46.061 -999 -999 -999 -999
2010-08-25 07:33:30 51°23.397 2°45.684 -999 -999 -999 -999
2010-08-25 07:35:30 51°23.738 2°45.297 -999 -999 -999 -999
2010-08-25 07:37:30 51°24.103 2°45.063 -999 -999 -999 -999
2010-08-25 07:39:30 51°24.423 2°45.31 -999 -999 -999 -999
2010-08-25 07:41:30 51°24.587 2°45.843 -999 -999 -999 -999
2010-08-25 07:43:30 51°24.796 2°46.338 -999 -999 -999 -999
2010-08-25 07:45:30 51°25.002 2°46.825 -999 -999 -999 -999
2010-08-25 07:47:30 51°25.2 2°47.325 -999 -999 -999 -999
2010-08-25 07:49:30 51°25.4 2°47.825 -999 -999 -999 -999
2010-08-25 07:51:30 51°25.601 2°48.317 -999 -999 -999 -999
2010-08-25 07:53:30 51°25.804 2°48.802 -999 -999 -999 -999
2010-08-25 07:55:30 51°26.005 2°49.291 -999 -999 -999 -999
2010-08-25 07:57:30 51°26.209 2°49.781 -999 -999 -999 -999
2010-08-25 07:59:30 51°26.417 2°50.271 -999 -999 -999 -999
2010-08-25 08:01:30 51°26.622 2°50.774 -999 -999 -999 -999
2010-08-25 08:03:30 51°26.824 2°51.278 -999 -999 -999 -999
2010-08-25 08:05:30 51°27.021 2°51.771 -999 -999 -999 -999
2010-08-25 08:07:30 51°27.219 2°52.277 -999 -999 -999 -999
2010-08-25 08:09:30 51°27.417 2°52.779 -999 -999 -999 -999
2010-08-25 08:11:30 51°27.611 2°53.281 -999 -999 -999 -999
2010-08-25 08:13:30 51°27.798 2°53.799 -999 -999 -999 -999
2010-08-25 08:15:30 51°27.977 2°54.311 -999 -999 -999 -999
2010-08-25 08:17:30 51°28.157 2°54.821 -999 -999 -999 -999
2010-08-25 08:19:30 51°28.333 2°55.327 -999 -999 -999 -999
2010-08-25 08:21:30 51°28.513 2°55.833 -999 -999 -999 -999
2010-08-25 08:23:30 51°28.695 2°56.333 -999 -999 -999 -999
2010-08-25 08:25:30 51°28.875 2°56.839 -999 -999 -999 -999
2010-08-25 08:27:30 51°29.059 2°57.345 -999 -999 -999 -999
2010-08-25 08:29:30 51°29.241 2°57.847 -999 -999 -999 -999
2010-08-25 08:31:30 51°29.428 2°58.352 -999 -999 -999 -999
2010-08-25 08:33:30 51°29.617 2°58.859 -999 -999 -999 -999
2010-08-25 08:35:30 51°29.812 2°59.372 -999 -999 -999 -999
2010-08-25 08:37:30 51°30.015 2°59.881 -999 -999 -999 -999
2010-08-25 08:39:30 51°30.212 3°0.4 -999 -999 -999 -999
2010-08-25 08:41:30 51°30.408 3°0.912 -999 -999 -999 -999
2010-08-25 08:43:30 51°30.605 3°1.436 -999 -999 -999 -999
2010-08-25 08:45:30 51°30.804 3°1.95 -999 -999 -999 -999
2010-08-25 08:47:30 51°31.006 3°2.47 -999 -999 -999 -999
2010-08-25 08:49:30 51°31.204 3°2.985 -999 -999 -999 -999
2010-08-25 08:51:30 51°31.407 3°3.514 -999 -999 -999 -999
2010-08-25 08:53:30 51°31.61 3°4.043 -999 -999 -999 -999
2010-08-25 08:55:30 51°31.807 3°4.563 -999 -999 -999 -999
2010-08-25 08:57:30 51°32.113 3°4.892 -999 -999 -999 -999
2010-08-25 08:59:30 51°32.48 3°4.628 -999 -999 -999 -999
2010-08-25 09:01:30 51°32.763 3°4.094 -999 -999 -999 -999
2010-08-25 09:03:30 51°33.044 3°3.568 -999 -999 -999 -999
2010-08-25 09:05:30 51°33.106 3°2.91 -999 -999 -999 -999
2010-08-25 09:07:30 51°32.915 3°2.224 -999 -999 -999 -999
2010-08-25 09:09:30 51°32.685 3°1.558 -999 -999 -999 -999
2010-08-25 09:11:30 51°32.456 3°0.882 -999 -999 -999 -999
2010-08-25 09:13:30 51°32.225 3°0.206 -999 -999 -999 -999
2010-08-25 09:15:30 51°31.994 2°59.509 -999 -999 -999 -999
2010-08-25 09:17:30 51°31.764 2°58.827 -999 -999 -999 -999
2010-08-25 09:19:30 51°31.528 2°58.14 -999 -999 -999 -999
2010-08-25 09:21:30 51°31.295 2°57.455 -999 -999 -999 -999
2010-08-25 09:23:30 51°31.06 2°56.778 -999 -999 -999 -999
2010-08-25 09:25:30 51°30.822 2°56.084 -999 -999 -999 -999
2010-08-25 09:27:30 51°30.589 2°55.413 -999 -999 -999 -999
2010-08-25 09:29:30 51°30.343 2°54.742 -999 -999 -999 -999
2010-08-25 09:31:30 51°30.102 2°54.074 -999 -999 -999 -999
2010-08-25 09:33:30 51°29.863 2°53.407 -999 -999 -999 -999
2010-08-25 09:35:30 51°29.623 2°52.745 -999 -999 -999 -999
2010-08-25 09:37:30 51°29.398 2°52.08 -999 -999 -999 -999
2010-08-25 09:39:30 51°29.172 2°51.413 -999 -999 -999 -999
2010-08-25 09:41:30 51°28.948 2°50.738 -999 -999 -999 -999
2010-08-25 09:43:30 51°28.716 2°50.065 -999 -999 -999 -999
2010-08-25 09:45:30 51°28.482 2°49.399 -999 -999 -999 -999
2010-08-25 09:47:30 51°28.252 2°48.739 -999 -999 -999 -999
2010-08-25 09:49:30 51°28.022 2°48.074 -999 -999 -999 -999
2010-08-25 09:51:30 51°27.791 2°47.407 -999 -999 -999 -999
2010-08-25 09:53:30 51°27.562 2°46.739 -999 -999 -999 -999
2010-08-25 09:55:30 51°27.333 2°46.063 -999 -999 -999 -999
2010-08-25 09:57:30 51°27.104 2°45.392 -999 -999 -999 -999
2010-08-25 09:59:30 51°26.878 2°44.733 -999 -999 -999 -999
2010-08-25 10:01:30 51°26.646 2°44.06 -999 -999 -999 -999
2010-08-25 10:03:30 51°26.564 2°43.334 -999 -999 -999 -999
2010-08-25 10:05:30 51°26.816 2°42.795 -999 -999 -999 -999
2010-08-25 10:07:30 51°27.178 2°42.476 -999 -999 -999 -999
2010-08-25 10:09:30 51°27.567 2°42.268 -999 -999 -999 -999
2010-08-25 10:11:30 51°27.804 2°42.687 -999 -999 -999 -999
2010-08-25 10:13:30 51°27.998 2°43.238 -999 -999 -999 -999
2010-08-25 10:15:30 51°28.188 2°43.808 -999 -999 -999 -999
2010-08-25 10:17:30 51°28.391 2°44.359 -999 -999 -999 -999
2010-08-25 10:19:30 51°28.588 2°44.926 -999 -999 -999 -999
2010-08-25 10:21:30 51°28.777 2°45.497 -999 -999 -999 -999
2010-08-25 10:23:30 51°28.965 2°46.07 -999 -999 -999 -999
2010-08-25 10:25:30 51°29.157 2°46.644 -999 -999 -999 -999
2010-08-25 10:27:30 51°29.346 2°47.222 -999 -999 -999 -999
2010-08-25 10:29:30 51°29.538 2°47.801 -999 -999 -999 -999
2010-08-25 10:31:30 51°29.725 2°48.38 -999 -999 -999 -999
2010-08-25 10:33:30 51°29.919 2°48.95 -999 -999 -999 -999
2010-08-25 10:35:30 51°30.111 2°49.524 -999 -999 -999 -999
2010-08-25 10:37:30 51°30.303 2°50.087 -999 -999 -999 -999
2010-08-25 10:39:30 51°30.493 2°50.656 -999 -999 -999 -999
2010-08-25 10:41:30 51°30.684 2°51.231 -999 -999 -999 -999
2010-08-25 10:43:30 51°30.881 2°51.81 -999 -999 -999 -999
2010-08-25 10:45:30 51°31.075 2°52.382 -999 -999 -999 -999
2010-08-25 10:47:30 51°31.269 2°52.955 -999 -999 -999 -999
2010-08-25 10:49:30 51°31.468 2°53.525 -999 -999 -999 -999
2010-08-25 10:51:30 51°31.669 2°54.09 -999 -999 -999 -999
2010-08-25 10:53:30 51°31.88 2°54.642 -999 -999 -999 -999
2010-08-25 10:55:30 51°32.091 2°55.205 -999 -999 -999 -999
2010-08-25 10:57:30 51°32.319 2°55.747 -999 -999 -999 -999
2010-08-25 10:59:30 51°32.582 2°56.243 -999 -999 -999 -999
2010-08-25 11:01:30 51°32.825 2°56.751 -999 -999 -999 -999
2010-08-25 11:03:30 51°33.032 2°57.302 -999 -999 -999 -999
2010-08-25 11:05:30 51°33.237 2°57.862 -999 -999 -999 -999
2010-08-25 11:07:30 51°33.434 2°58.429 -999 -999 -999 -999
2010-08-25 11:09:30 51°33.634 2°58.994 -999 -999 -999 -999
2010-08-25 11:11:30 51°33.833 2°59.566 -999 -999 -999 -999
2010-08-25 11:13:30 51°33.954 2°59.919 -999 -999 -999 -999
2010-08-25 11:15:30 51°34.227 3°0.702 -999 -999 -999 -999
2010-08-25 11:17:30 51°34.571 3°0.934 -999 -999 -999 -999
2010-08-25 11:19:30 51°34.897 3°0.598 -999 -999 -999 -999
2010-08-25 11:21:30 51°35.178 3°0.112 -999 -999 -999 -999
2010-08-25 11:23:30 51°35.478 2°59.639 -999 -999 -999 -999
2010-08-25 11:25:30 51°35.724 2°59.108 -999 -999 -999 -999
2010-08-25 11:27:30 51°35.597 2°58.462 -999 -999 -999 -999
2010-08-25 11:29:30 51°35.389 2°57.853 -999 -999 -999 -999
2010-08-25 11:31:30 51°35.176 2°57.276 -999 -999 -999 -999
2010-08-25 11:33:30 51°34.963 2°56.694 -999 -999 -999 -999
2010-08-25 11:35:30 51°34.753 2°56.11 -999 -999 -999 -999
2010-08-25 11:37:30 51°34.537 2°55.528 -999 -999 -999 -999
2010-08-25 11:39:30 51°34.323 2°54.951 -999 -999 -999 -999
2010-08-25 11:41:30 51°34.11 2°54.383 -999 -999 -999 -999
2010-08-25 11:43:30 51°33.9 2°53.808 -999 -999 -999 -999
2010-08-25 11:45:30 51°33.689 2°53.234 -999 -999 -999 -999
2010-08-25 11:47:30 51°33.48 2°52.657 -999 -999 -999 -999
2010-08-25 11:49:30 51°33.278 2°52.075 -999 -999 -999 -999
2010-08-25 11:51:30 51°33.073 2°51.499 -999 -999 -999 -999
2010-08-25 11:53:30 51°32.87 2°50.921 -999 -999 -999 -999
2010-08-25 11:55:30 51°32.668 2°50.347 -999 -999 -999 -999
2010-08-25 11:57:30 51°32.466 2°49.791 -999 -999 -999 -999
2010-08-25 11:59:30 51°32.262 2°49.229 -999 -999 -999 -999
2010-08-25 13:01:30 51°24.103 2°42.932 -999 -999 -999 -999
2010-08-25 13:03:30 51°23.73 2°43.244 -999 -999 -999 -999
2010-08-25 13:05:30 51°23.362 2°43.557 -999 -999 -999 -999
2010-08-25 13:07:30 51°22.992 2°43.86 -999 -999 -999 -999
2010-08-25 13:09:30 51°22.621 2°44.159 -999 -999 -999 -999
2010-08-25 13:11:30 51°22.247 2°44.479 -999 -999 -999 -999
2010-08-25 13:13:30 51°21.877 2°44.8 -999 -999 -999 -999
2010-08-25 13:15:30 51°21.508 2°45.118 -999 -999 -999 -999
2010-08-25 13:17:30 51°21.143 2°45.456 -999 -999 -999 -999
2010-08-25 13:19:30 51°20.779 2°45.798 -999 -999 -999 -999
2010-08-25 13:21:30 51°20.415 2°46.145 -999 -999 -999 -999
2010-08-25 13:23:30 51°20.046 2°46.482 -999 -999 -999 -999
2010-08-25 13:25:30 51°19.675 2°46.808 -999 -999 -999 -999
2010-08-25 13:27:30 51°19.305 2°47.14 -999 -999 -999 -999
2010-08-25 13:29:30 51°18.939 2°47.471 -999 -999 -999 -999
2010-08-25 13:31:30 51°18.574 2°47.795 -999 -999 -999 -999
2010-08-25 13:33:30 51°18.205 2°48.116 -999 -999 -999 -999
2010-08-25 13:35:30 51°17.836 2°48.435 -999 -999 -999 -999
2010-08-25 13:37:30 51°17.467 2°48.752 -999 -999 -999 -999
2010-08-25 13:39:30 51°17.104 2°49.073 -999 -999 -999 -999
2010-08-25 13:41:30 51°16.741 2°49.41 -999 -999 -999 -999
2010-08-25 13:43:30 51°16.38 2°49.759 -999 -999 -999 -999
2010-08-25 13:45:30 51°16.012 2°50.1 -999 -999 -999 -999
2010-08-25 13:47:30 51°15.749 2°50.635 -999 -999 -999 -999
2010-08-25 13:49:30 51°15.58 2°51.303 -999 -999 -999 -999
2010-08-25 13:51:30 51°15.395 2°51.976 -999 -999 -999 -999
2010-08-25 13:53:30 51°15.226 2°52.64 -999 -999 -999 -999
2010-08-25 13:55:30 51°15.054 2°53.303 -999 -999 -999 -999
2010-08-25 13:57:30 51°14.878 2°53.96 -999 -999 -999 -999
2010-08-25 13:59:30 51°14.701 2°54.621 -999 -999 -999 -999
2010-08-25 14:01:30 51°14.407 2°55.116 -999 -999 -999 -999
2010-08-25 14:03:30 51°14.105 2°55.425 -999 -999 -999 -999
2010-08-25 14:05:30 51°13.906 2°55.574 -999 -999 -999 -999